| time (UTC) | temp F | wind direction | speed knots | gust knots | rain 1hr in | rain 24hr in | rain mn in | humidity % | barometer mb |
| 20260503071513 | 35 | 184 | 5.2 | 0.0 | 0.00 | 0.00 | 0.00 | 66 | 980.9 |
| 20260503054513 | 36 | 202 | 5.2 | 0.0 | 0.00 | 0.00 | 0.00 | 63 | 982.2 |
| 20260503051513 | 35 | 198 | 4.3 | 0.0 | 0.00 | 0.00 | 0.00 | 64 | 982.4 |
| 20260503050034 | 36 | 201 | 4.3 | 0.0 | 0.00 | 0.00 | 0.00 | 64 | 982.4 |
| 20260503044513 | 36 | 198 | 4.3 | 0.0 | 0.00 | 0.00 | 0.00 | 61 | 982.6 |
| 20260503043032 | 37 | 205 | 4.3 | 0.0 | 0.00 | 0.00 | 0.00 | 58 | 982.2 |
| 20260503041513 | 37 | 211 | 4.3 | 0.0 | 0.00 | 0.00 | 0.00 | 58 | 982.2 |
| 20260503040038 | 37 | 215 | 4.3 | 0.0 | 0.00 | 0.00 | 0.00 | 58 | 982.2 |
| 20260503034513 | 37 | 219 | 3.5 | 0.0 | 0.00 | 0.00 | 0.00 | 53 | 983.0 |
| 20260503033033 | 37 | 223 | 4.3 | 0.0 | 0.00 | 0.00 | 0.00 | 53 | 983.4 |
| 20260503031513 | 38 | 222 | 5.2 | 0.0 | 0.00 | 0.00 | 0.00 | 53 | 983.4 |
| 20260503030037 | 39 | 222 | 4.3 | 0.0 | 0.00 | 0.00 | 0.00 | 53 | 983.4 |
| 20260503024513 | 39 | 229 | 4.3 | 0.0 | 0.00 | 0.00 | 0.00 | 50 | 983.5 |
| 20260503023032 | 39 | 229 | 4.3 | 0.0 | 0.00 | 0.00 | 0.00 | 56 | 984.1 |
| 20260503021514 | 39 | 237 | 4.3 | 0.0 | 0.00 | 0.00 | 0.00 | 56 | 984.1 |
| 20260503020036 | 40 | 243 | 3.5 | 0.0 | 0.00 | 0.00 | 0.00 | 56 | 984.1 |
| 20260503014513 | 40 | 252 | 4.3 | 0.0 | 0.00 | 0.00 | 0.00 | 54 | 983.3 |
| 20260503013031 | 40 | 258 | 4.3 | 0.0 | 0.00 | 0.00 | 0.00 | 54 | 983.3 |
| 20260503011513 | 41 | 256 | 3.5 | 0.0 | 0.00 | 0.00 | 0.00 | 54 | 983.3 |
| 20260503010034 | 41 | 264 | 3.5 | 0.0 | 0.00 | 0.00 | 0.00 | 54 | 983.3 |
| 20260503004513 | 42 | 276 | 3.5 | 0.0 | 0.00 | 0.00 | 0.00 | 42 | 983.9 |
| 20260503003026 | 43 | 284 | 2.6 | 0.0 | 0.00 | 0.00 | 0.00 | 42 | 984.1 |
| 20260503001514 | 44 | 290 | 3.5 | 0.0 | 0.00 | 0.00 | 0.00 | 42 | 984.1 |
| 20260503000033 | 45 | 289 | 5.2 | 0.0 | 0.00 | 0.00 | 0.00 | 42 | 984.1 |
| 20260502234513 | 46 | 291 | 6.1 | 0.0 | 0.00 | 0.00 | 0.00 | 38 | 983.9 |
| 20260502233025 | 46 | 286 | 7.0 | 0.0 | 0.00 | 0.00 | 0.00 | 39 | 984.0 |
| 20260502231513 | 46 | 286 | 7.8 | 0.0 | 0.00 | 0.00 | 0.00 | 39 | 984.0 |
| 20260502230037 | 47 | 289 | 7.8 | 0.0 | 0.00 | 0.00 | 0.00 | 39 | 984.0 |
| 20260502224513 | 47 | 290 | 8.7 | 0.0 | 0.00 | 0.00 | 0.00 | 39 | 984.5 |
| 20260502223031 | 47 | 288 | 8.7 | 0.0 | 0.00 | 0.00 | 0.00 | 40 | 985.1 |
| 20260502221513 | 47 | 287 | 9.6 | 0.0 | 0.00 | 0.00 | 0.00 | 40 | 985.1 |
| 20260502220034 | 47 | 288 | 9.6 | 0.0 | 0.00 | 0.00 | 0.00 | 40 | 985.1 |
| 20260502214513 | 47 | 292 | 9.6 | 0.0 | 0.00 | 0.00 | 0.00 | 36 | 985.2 |
| 20260502213031 | 48 | 285 | 8.7 | 0.0 | 0.00 | 0.00 | 0.00 | 36 | 984.8 |
| 20260502211513 | 48 | 283 | 7.8 | 0.0 | 0.00 | 0.00 | 0.00 | 36 | 984.8 |
| 20260502210037 | 48 | 284 | 7.8 | 0.0 | 0.00 | 0.00 | 0.00 | 36 | 984.8 |
| 20260502204513 | 48 | 285 | 8.7 | 0.0 | 0.00 | 0.00 | 0.00 | 39 | 985.2 |
| 20260502203031 | 48 | 291 | 9.6 | 0.0 | 0.00 | 0.00 | 0.00 | 37 | 985.5 |
| 20260502201513 | 48 | 292 | 7.8 | 0.0 | 0.00 | 0.00 | 0.00 | 37 | 985.5 |
| 20260502200035 | 47 | 288 | 7.8 | 0.0 | 0.00 | 0.00 | 0.00 | 37 | 985.5 |
| 20260502194513 | 46 | 287 | 9.6 | 0.0 | 0.00 | 0.00 | 0.00 | 42 | 985.6 |
| 20260502193025 | 46 | 290 | 8.7 | 0.0 | 0.00 | 0.00 | 0.00 | 42 | 985.6 |
| 20260502191513 | 47 | 293 | 9.6 | 0.0 | 0.00 | 0.00 | 0.00 | 42 | 985.7 |
| 20260502190036 | 46 | 294 | 8.7 | 0.0 | 0.00 | 0.00 | 0.00 | 42 | 985.7 |
| 20260502184513 | 45 | 298 | 8.7 | 0.0 | 0.00 | 0.00 | 0.00 | 44 | 985.3 |
| 20260502183032 | 45 | 298 | 8.7 | 0.0 | 0.00 | 0.00 | 0.00 | 44 | 985.5 |
| 20260502181512 | 46 | 298 | 8.7 | 0.0 | 0.00 | 0.00 | 0.00 | 44 | 985.5 |
| 20260502163032 | 45 | 287 | 7.0 | 0.0 | 0.00 | 0.00 | 0.00 | 41 | 985.6 |
| 20260502161514 | 45 | 290 | 7.0 | 0.0 | 0.00 | 0.00 | 0.00 | 41 | 985.5 |
| 20260502151514 | 42 | 312 | 5.2 | 0.0 | 0.00 | 0.00 | 0.00 | 50 | 985.4 |
| 20260502123031 | 35 | 310 | 4.3 | 0.0 | 0.00 | 0.00 | 0.00 | 77 | 985.3 |
| 20260502121513 | 34 | 315 | 5.2 | 0.0 | 0.00 | 0.00 | 0.00 | 77 | 985.3 |
| 20260502114513 | 33 | 306 | 3.5 | 0.0 | 0.00 | 0.00 | 0.00 | 82 | 984.5 |
| 20260502113033 | 32 | 291 | 2.6 | 0.0 | 0.00 | 0.00 | 0.00 | 83 | 985.0 |
| 20260502111513 | 31 | 274 | 1.7 | 0.0 | 0.00 | 0.00 | 0.00 | 83 | 985.0 |
| 20260502110038 | 31 | 270 | 2.6 | 0.0 | 0.00 | 0.00 | 0.00 | 83 | 985.0 |
| 20260502104513 | 31 | 275 | 1.7 | 0.0 | 0.00 | 0.00 | 0.00 | 83 | 984.7 |
| 20260502103031 | 31 | 288 | 1.7 | 0.0 | 0.00 | 0.00 | 0.00 | 85 | 985.2 |
| 20260502101513 | 31 | 279 | 1.7 | 0.0 | 0.00 | 0.00 | 0.00 | 85 | 985.2 |
| 20260502091513 | 31 | 279 | 3.5 | 0.0 | 0.00 | 0.00 | 0.00 | 83 | 984.9 |